Tracking 28920 objects as of 25-May-2024
HD Live streaming from Space Station
objects crossing your sky now

STELLA

Track STELLA now!
10-day predictions
STELLA is classified as:


NORAD ID: 22824
Int'l Code: 1993-061B
Perigee: 803.7 km
Apogee: 811.3 km
Inclination: 98.9 °
Period: 100.9 minutes
Semi major axis: 7178 km
RCS: 0.167 m2 (medium)
Launch date: September 26, 1993
Source: France (FR)
Launch site: FRENCH GUIANA (FRGUI)
Your satellite tracking list
Your tracking list is empty




NASA's NSSDC Master Catalog

Two Line Element Set (TLE):
1 22824U 93061B   24145.89164935 -.00000009  00000-0  14912-4 0  9999
2 22824  98.8798 191.8116 0005306 265.3961 183.5842 14.27424739597300
Source of the keplerian elements: AFSPC